Location: F?ge?el
(45.8833°N, 22.5833°E)
Time: 13:36:21
(UTC+00:00)

BlueWalker 3 - Pass Details

Date: 17 November 2025
Orbit: 455 x 462 km, 53.2° (Epoch: 06 December)

Event Time Altitude Azimuth Distance (km) Brightness Sun altitude
Rises 17:11:37 0° 208° (SSW) 2,474 5.9 -23.4°
Reaches altitude 10° 17:13:55 10° 197° (SSW) 1,604 4.7 -23.8°
Enters shadow 17:14:42 15° 189° (S) 1,346 4.2 -23.9°
